Find Starlink 35167

NORAD ID: 65736 Int'l Des: 2025-216 Owner: SPXS Country: US Constellation: starlink operational
LEOCIRCULAR

現在のビュー

3D地球を読み込み中...

Starlink 35167について

説明を読み込み中...

次回通過

Passes for default location (London). Set your location on the main map for personalized predictions.

高度履歴

Loading altitude history...

軌道要素

1 65736U 25216C 26149.87142338 .00036360 00000-0 12333-2 0 9993
2 65736 53.1602 315.7603 0000850 34.7453 325.3604 15.30210825 38977
Epoch: May 29, 2026 • Age: 16 hours

現在のステータス

高度 477.7 km
速度 7.63 km/s
衛星直下点 -11.32°S, 131.79°W
打ち上げ日 Sep 25, 2025
運用期間 0.6 years
タイプ internet

技術仕様

分類 Payload
質量 575.00 kg
乾燥質量 530.00 kg
総質量 575.00 kg
長さ 0.30 m
直径 4.10 m
スパン 29.00 m
形状 Box + pan
製造者 SPXS
バスタイプ Starlink V2MO
フェーズステータス In Orbit
所有者/国 SPXS/US

Most Searched